Back to catalog

ORBCOMM FM 119

AliveCommunicationsLEO
NORAD 41180·PAYLOAD·🇺🇸 United States

Launched Dec 22, 2015 from Cape Canaveral Space Force Station

Loading…

Next Passes (next 24 hours)

TLE

FreshSource: Space-Track

Epoch: Sep 14, 2026, 13:32 UTC

1 41180U 15081B   26257.56391083  .00000332  00000-0  10635-3 0  9992
2 41180  46.9993 208.7837 0001874 310.4412  49.6310 14.58875530572054

Track ORBCOMM FM 119 in real time with AllMySat

Download on the App Store